Edwards AFB North Base, CA

12:54 AM PDT on August 25, 2019 (GMT -0700)
Edwards AFB North Base

Weather History for K9L2 - May, 2019

Change the Weather History Date:

Tuesday, May 14, 2019

  Actual Average (KEDW) Record (KEDW)
Temperature  
Mean Temperature 70 °F -  
Max Temperature 86 °F 80 °F 96 °F (2006)
Min Temperature 55 °F 51 °F 44 °F (1998)
Cooling Degree Days 6    
Growing Degree Days 20 (Base 50)    
Moisture  
Dew Point 36 °F    
Average Humidity 30    
Maximum Humidity 56    
Minimum Humidity 11    
Precipitation  
Precipitation 0.00 in - - ()
Sea Level Pressure  
Sea Level Pressure 29.89 in    
Wind  
Wind Speed 12 mph (SSW)    
Max Wind Speed 23 mph    
Max Gust Speed 30 mph    
Visibility 9 miles    
Events      
Averages and records for this station are not official NWS values.
T = Trace of Precipitation, MM = Missing Value Source: NWS Daily Summary

Daily Weather History Graph

Daily Weather History Graph

Search for Another Location

Airport or City:

Astronomy

May. 14, 2019 Rise Set
Actual Time 5:48 AM PDT 7:47 PM PDT
Civil Twilight 5:20 AM PDT 8:15 PM PDT
Nautical Twilight 4:46 AM PDT 8:49 PM PDT
Astronomical Twilight 4:10 AM PDT 9:25 PM PDT
Moon 3:27 PM PDT (5/14) 3:29 AM PDT (5/14)
Length of Visible Light 14h 54m
Length of Day
13h 58m
Waxing Gibbous, 80% of the Moon is Illuminated
May 14
Waxing Gibbous
May 18
Full
May 26
Last Quarter
Jun 3
New
Jun 9
First Quarter

Hourly Weather History & Observations

Time (PDT) Temp. Dew Point Humidity Pressure Visibility Wind Dir Wind Speed Gust Speed Precip Events Conditions
12:58 AM 60.3 °F 41.0 °F 49% 29.91 in 10.0 mi South 6.9 mph - N/A   Clear
1:58 AM 59.2 °F 40.1 °F 49% 29.90 in 10.0 mi SSE 15.0 mph - N/A   Clear
2:58 AM 57.7 °F 40.8 °F 53% 29.91 in 10.0 mi South 11.5 mph - N/A   Clear
3:58 AM 56.8 °F 41.4 °F 56% 29.89 in 10.0 mi South 11.5 mph - N/A   Clear
4:58 AM 56.1 °F 39.9 °F 55% 29.91 in 10.0 mi South 10.4 mph - N/A   Clear
5:58 AM 55.2 °F 39.6 °F 56% 29.92 in 10.0 mi South 8.1 mph - N/A   Clear
6:58 AM 57.6 °F 40.5 °F 53% 29.93 in 9.0 mi South 8.1 mph - N/A   Clear
7:58 AM 64.4 °F 41.0 °F 42% 29.93 in 9.0 mi SSE 10.4 mph - N/A   Clear
8:58 AM 72.0 °F 39.4 °F 31% 29.93 in 9.0 mi SSE 10.4 mph - N/A   Clear
9:58 AM 78.6 °F 35.1 °F 21% 29.93 in 9.0 mi SSW 6.9 mph - N/A   Clear
10:58 AM 81.7 °F 34.9 °F 19% 29.93 in 9.0 mi South 11.5 mph - N/A   Clear
11:58 AM 84.6 °F 33.1 °F 16% 29.92 in 9.0 mi South 11.5 mph 20.7 mph N/A   Clear
12:51 PM 84.2 °F 32.0 °F 15% 29.91 in 9.0 mi WSW 11.5 mph 23.0 mph N/A   Clear
12:58 PM 85.5 °F 31.8 °F 15% 29.90 in 9.0 mi SW 12.7 mph - N/A   Partly Cloudy
1:58 PM 86.2 °F 25.5 °F 11% 29.88 in 9.0 mi SSW 18.4 mph 23.0 mph N/A   Partly Cloudy
2:23 PM 86.0 °F 30.2 °F 13% 29.88 in 9.0 mi SW 15.0 mph 20.7 mph N/A   Clear
2:58 PM 85.5 °F 29.7 °F 13% 29.87 in 9.0 mi SSW 15.0 mph 26.5 mph N/A   Clear
3:58 PM 84.6 °F 30.7 °F 14% 29.85 in 8.0 mi SSW 18.4 mph 21.9 mph N/A   Clear
4:58 PM 84.2 °F 31.3 °F 15% 29.85 in 8.0 mi South 18.4 mph 24.2 mph N/A   Clear
5:58 PM 81.7 °F 34.9 °F 19% 29.84 in 9.0 mi SSW 20.7 mph 27.6 mph N/A   Clear
6:58 PM 78.1 °F 36.3 °F 22% 29.85 in 8.0 mi SSW 23.0 mph 29.9 mph N/A   Clear
7:58 PM 73.8 °F 37.6 °F 27% 29.87 in 8.0 mi SW 17.3 mph - N/A   Clear
8:58 PM 69.8 °F 43.5 °F 39% 29.87 in 9.0 mi SW 12.7 mph - N/A   Clear
9:58 PM 69.4 °F 30.2 °F 23% 29.88 in 9.0 mi SW 10.4 mph - N/A   Clear
10:58 PM 68.4 °F 33.1 °F 27% 29.88 in 10.0 mi SW 10.4 mph - N/A   Clear
11:58 PM 65.8 °F 39.9 °F 39% 29.87 in 9.0 mi West 5.8 mph - N/A   Partly Cloudy